Location: La Silve
(44.2414°N, 5.8889°E)
Time: 04:53:58
(UTC+00:00)

YAOGAN 1 - Pass Details

Date: 01 December 2020
Orbit: 618 x 620 km, 97.9° (Epoch: 24 January)

Event Time Altitude Azimuth Distance (km) Brightness Sun altitude
Rises 18:38:11 0° 179° (S) 2,881 6.0 -27.9°
Enters shadow 18:38:58 - 180° (S) 2,563 5.8 -28.0°
Exits shadow 18:46:29 29° 320° (NW) 1,138 4.1 -29.3°
Drops below altitude 10° 18:48:50 10° 337° (NNW) 1,997 5.4 -29.8°
Sets 18:51:06 0° 342° (NNW) 2,909 6.2 -30.2°
